Regional Weather Roundup
Issued by NWS

Home | Current Version | Previous Version | Graphics & Text | Print | Product List | Glossary On
Versions: 1 2 3 4 5 6 7 8 9 10 11 12 13 14 15 16 17 18 19 20 21 22 23 24 25 26 27 28 29 30 31 32 33 34 35 36 37 38 39 40 41 42 43 44 45 46 47 48 49 50
000
ASUS43 KLOT 261106
RWRIL

ILLINOIS REGIONAL WEATHER ROUNDUP
NATIONAL WEATHER SERVICE CHICAGO/ROMEOVILLE IL
500 AM CST MON JAN 26 2015

NOTE: "FAIR" INDICATES FEW OR NO CLOUDS BELOW 12,000 FEET WITH NO
SIGNIFICANT WEATHER AND/OR OBSTRUCTIONS TO VISIBILITY.

* THESE STATIONS ARE NOT UNDER NWS QUALITY CONTROL. THEY ALSO MAY NOT
  REPORT WEATHER SUCH AS PRECIPITATION OR FOG.

ILZ001-002-007-009-015-016-024-261200-
NORTHWEST ILLINOIS

CITY           SKY/WX    TMP DP  RH WIND       PRES   REMARKS
MOLINE         CLOUDY    16  12  84 CALM      30.01F
STERLING*      CLOUDY    18  12  79 CALM      29.99F
SAVANNA*       CLOUDY    17  13  84 CALM      30.01R
$$

ILZ003-004-008-010-011-017-018-261200-
NORTH CENTRAL ILLINOIS

CITY           SKY/WX    TMP DP  RH WIND       PRES   REMARKS
ROCKFORD       MOCLDY    14   9  80 NW5       30.00F WCI   6
FREEPORT*      CLOUDY    14  11  87 CALM      29.99S
ROCHELLE*      FAIR      14  11  88 CALM      29.99S
DE KALB*       CLEAR     12   9  88 N3        29.96F
PERU*          CLEAR     15  12  88 CALM      29.98F
$$

ILZ005-006-012>014-019>023-261200-
NORTHEAST ILLINOIS

CITY           SKY/WX    TMP DP  RH WIND       PRES   REMARKS
CHICAGO-OHARE  PTCLDY    18  13  80 CALM      29.96F
CHICAGO-MIDWAY PTCLDY    23  16  74 N5        29.97S WCI  17
AURORA         CLEAR     14   9  80 NW3       29.97F
LANSING*       CLEAR     17  12  80 CALM      29.97S
JOLIET*        CLEAR     16  12  86 CALM      29.97F
WAUKEGAN       CLOUDY    17  13  84 W5        29.96F WCI  10
DUPAGE AIRPORT CLEAR     14  10  84 N5        29.96F WCI   6
KANKAKEE*      CLOUDY    23  19  83 CALM      29.97S
WHEELING       MOCLDY    18  12  77 NW3       29.98F
MORRIS*        CLEAR     16  13  90 N3        29.97F
ROMEOVILLE*    PTCLDY    16  13  87 N3        29.97S
NORTHERLY ISL    N/A     22  15  75 N5          N/A  WCI  16
$$

LMZ740>746-261200-
SOUTHERN LAKE MICHIGAN

STATION/POSITION SKY/WX   TEMP    WIND        PRES    VSBY  WAVE
                          AIR SEA DIR/SP/G                  HT/PER
                          (F)     (DEG/KT/KT) (MB)    (MI)  (FT/S)
WAUKEGAN HARBOR            20        CALM       N/A
HARRISON CRIB              23      20/  5/  7   N/A
BURNHAM HARBOR             22      60/  4/  6   N/A
CALUMET HARBOR             22     360/  5/  6   N/A
MICHIGAN CITY              17      60/  5/  8   N/A
$$

ILZ025>027-034>036-040-047-049-050-058-095>099-261200-
WEST-CENTRAL ILLINOIS

CITY           SKY/WX    TMP DP  RH WIND       PRES   REMARKS
QUINCY         CLOUDY    26  21  81 W5        30.02S WCI  20
GALESBURG*     PTCLDY    19  16  91 CALM      29.99F
MACOMB*        CLEAR     19  18  93 W5        30.03F WCI  13
JACKSONVILLE*  CLEAR     22  19  86 W6        30.02F WCI  15
PITTSFIELD*    CLOUDY    27  23  86 W3        30.04S
$$

ILZ028>032-037-038-041>044-048-051>054-059>061-261200-
CENTRAL ILLINOIS

CITY           SKY/WX    TMP DP  RH WIND       PRES   REMARKS
PONTIAC        CLEAR     20  17  88 NW8       29.99S WCI  10
BLOOMINGTON    CLEAR     19  16  88 NW7       29.99R WCI  10
DECATUR        CLOUDY    23  22  96 NW7       29.99S WCI  15
PEORIA         PTCLDY    20  14  77 NW3       30.00F
LACON*         PTCLDY    17  12  81 CALM      29.98F
LINCOLN*       CLEAR     22  18  84 NW3       30.03R
SPRINGFIELD    CLEAR     21  16  81 NW5       30.02R WCI  15
TAYLORVILLE    CLEAR     23  19  86 NW7       30.01S WCI  15
$$

ILZ033-039-045-046-055>057-062-063-261200-
EAST-CENTRAL ILLINOIS

CITY           SKY/WX    TMP DP  RH WIND       PRES   REMARKS
CHAMPAIGN      CLOUDY    27  21  78 N9        29.96R WCI  18
DANVILLE*      CLOUDY    24  20  86 N7        29.93S WCI  16
RANTOUL*       CLOUDY    26  20  78 N9        29.96S WCI  17
MATTOON        CLOUDY    28  23  81 NW12      29.96R WCI  18
PARIS*         CLOUDY    28  23  84 NE6       29.97R WCI  21
$$

ILZ079-100>102-261200-
SOUTHWEST ILLINOIS

CITY           SKY/WX    TMP DP  RH WIND       PRES   REMARKS
ALTON          CLEAR     26  21  83 W7        30.04R WCI  18
BELLEVILLE     PTCLDY    24  20  86 NW7       30.04S WCI  16
CAHOKIA*       CLEAR     28  21  75 NW10      30.05S WCI  19
SPARTA*        PTCLDY    27  22  81 NW7       30.04S WCI  19
$$

ILZ064>066-069>071-074>076-080>082-084>086-088>090-092>094-261200-
SOUTH-CENTRAL ILLINOIS

CITY           SKY/WX    TMP DP  RH WIND       PRES   REMARKS
CARBONDALE     MOCLDY    29  23  78 NW10      30.03S WCI  20
CAIRO*         MOCLDY    34  28  79 NW12      30.03S WCI  25
EFFINGHAM*     CLOUDY    29  23  77 NW9       30.00R WCI  21
MARION         CLOUDY    30  25  80 NW9       30.02R WCI  22
MT. VERNON     CLOUDY    28  19  69 NW6       30.01R WCI  22
CENTRALIA*     CLOUDY    28  22  80 NW12      30.01S WCI  17
SALEM*         CLOUDY    29  24  80 NW13      30.01R WCI  19
METROPOLIS*    CLOUDY    32  29  89 NW9G16    30.00R WCI  25
$$

ILZ067-068-072-073-078-083-087-091-261200-
SOUTHEAST ILLINOIS

CITY           SKY/WX    TMP DP  RH WIND       PRES   REMARKS
LAWRENCEVILLE  CLOUDY    29  24  82 N10       29.97R WCI  20
FLORA*         CLOUDY    29  25  82 N13       29.99R WCI  19
FAIRFIELD*     CLOUDY    31  26  81 NW9       29.99R WCI  22
HARRISBURG*    CLOUDY    31  27  84 NW13      30.01R WCI  22
ROBINSON*      CLOUDY    29  25  85 N9        29.98R WCI  20
CARMI*         CLOUDY    34  30  86 NW15      29.98R WCI  24
$$

ABBREVIATIONS USED IN REMARKS
   TC - TEMPERATURE IN CELSIUS
  WCI - WIND CHILL INDEX
   HX - HEAT INDEX
  VSB - VISIBILITY
$$



USA.gov is the U.S. government's official web portal to all federal, state and local government web resources and services.